Weather Roundup
Issued by NWS

Home | Current Version | Previous Version | Text Only | Print | Product List | Glossary On
Versions: 1 2 3 4 5 6 7 8 9 10 11 12 13 14 15 16 17 18 19 20 21 22 23 24 25 26 27 28 29 30 31 32 33 34 35 36 37 38 39 40 41 42 43 44 45 46 47 48 49 50
678
NZUS93 KARX 022059
HRRWXR

CURRENT HOURLY OBSERVATIONS ACROSS
MUCH OF THE UPPER MISSISSIPPI VALLEY
NATIONAL WEATHER SERVICE LA CROSSE WI
300 PM CST FRI DEC 02 2016


...SOUTHEAST MINNESOTA...


CITY           SKY/WX    TMP DP  RH WIND       PRES   REMARKS
ROCHESTER      CLOUDY    30  23  75 NW7       30.24R WCI  23
ROCHESTER/MAYO CLOUDY    31  22  69 W10G16    30.24R WCI  22
WINONA         CLOUDY    34  25  69 NW5       30.25R WCI  30
AUSTIN         CLOUDY    30  23  74 NW7       30.25R WCI  23
ALBERT LEA     CLOUDY    34  25  69 NW7       30.26R WCI  28
DODGE CENTER   CLOUDY    28  21  74 NW7       30.24R WCI  21
PRESTON        CLOUDY    30  22  72 W7        30.24R WCI  23
OWATONNA       CLOUDY    30  21  69 W3        30.26R
FARIBAULT      CLOUDY    30  25  80 NW6       30.26R WCI  24
$$

...ELSEWHERE IN MINNESOTA...


CITY           SKY/WX    TMP DP  RH WIND       PRES   REMARKS
MINNEAPOLIS    CLOUDY    33  23  66 NW6       30.25R WCI  28
INTNL FALLS    CLOUDY    25  22  88 W6        30.21R WCI  18
DULUTH         CLOUDY    28  23  81 NW8       30.18S WCI  20
RED WING       CLOUDY    34  23  64 W5        30.24R WCI  30
REDWOOD FALLS  CLOUDY    30  20  66 W9        30.28R WCI  22
MANKATO        CLOUDY    29  22  75 NW9       30.28R WCI  20
WORTHINGTON    CLOUDY    31  24  75 W10       30.27R WCI  22
FAIRMONT       CLOUDY    30  25  81 NW10      30.28R WCI  21
$$

...SOUTHWEST WISCONSIN...


CITY           SKY/WX    TMP DP  RH WIND       PRES   REMARKS
LA CROSSE      CLOUDY    35  23  61 NW6       30.25R WCI  30
PRAIRIE DU CHI CLOUDY    34  23  64 NW8       30.25R WCI  27
BOSCOBEL       CLOUDY    35  23  61 NW5       30.25R WCI  31
LONE ROCK      CLOUDY    34  23  64 W9        30.24R WCI  27
PLATTEVILLE    CLOUDY    33  27  77 NW8       30.23R WCI  26
FORT MC COY    CLOUDY    32  24  71 NW6       30.24R WCI  26
MAUSTON-NEW LI CLOUDY    32  25  74 NW8       30.21S WCI  25
VIROQUA        CLOUDY    31  24  76 W6        30.22R WCI  25
WIS DELLS      CLOUDY    32  23  69 N5        30.21R WCI  27
$$

...ELSEWHERE IN WISCONSIN...


CITY           SKY/WX    TMP DP  RH WIND       PRES   REMARKS
MILWAUKEE      CLOUDY    36  23  59 NW10      30.21R WCI  28
MADISON        CLOUDY    32  23  69 NW6       30.22R WCI  26
GREEN BAY      CLOUDY    37  29  72 NW12      30.18R WCI  29
EAU CLAIRE     NOT AVBL
BLACK RVR FLS  CLOUDY    32  21  63 W5        30.23S WCI  28
MEDFORD        CLOUDY    30  24  78 W5        30.17S WCI  25
WAUSAU         CLOUDY    32  24  72 NW8       30.17R WCI  25
WIS RAPIDS     CLOUDY    32  23  69 NW9       30.22R WCI  24
MARSHFIELD     CLOUDY    30  22  72 NW12      30.19R WCI  20
RICE LAKE      CLOUDY    31  24  74 N5        30.23R WCI  26
$$

...NORTHEAST IOWA...


CITY           SKY/WX    TMP DP  RH WIND       PRES   REMARKS
WATERLOO       CLOUDY    33  24  69 NW8       30.28R WCI  26
DUBUQUE        CLOUDY    34  25  69 NW12      30.24R WCI  25
DECORAH        CLOUDY    32  23  69 NW6       30.23R WCI  26
MASON CITY     CLOUDY    31  23  72 NW10      30.28R WCI  22
CHARLES CITY   CLOUDY    32  25  74 NW10G16   30.27R WCI  24
OELWEIN        CLOUDY    32  25  74 W8        30.27R WCI  25
$$

...ELSEWHERE IN IOWA...


CITY           SKY/WX    TMP DP  RH WIND       PRES   REMARKS
DES MOINES     CLOUDY    40  31  70 W5        30.27F
IOWA CITY      CLOUDY    39  28  64 NW9       30.29R WCI  33
FORT DODGE     CLOUDY    36  27  69 NW7       30.30R WCI  30
MARSHALLTOWN   CLOUDY    36  29  75 NW12      30.28R WCI  28
CEDAR RAPIDS   CLOUDY    35  29  78 NW14      30.27R WCI  26
$$

...NORTHERN ILLINOIS...


CITY           SKY/WX    TMP DP  RH WIND       PRES   REMARKS
CHICAGO-OHARE  CLOUDY    38  27  64 NW12      30.20R WCI  30
CHICAGO-MIDWAY CLOUDY    40  27  59 NW9       30.21R WCI  34
MOLINE         CLOUDY    40  27  59 NW10      30.26R WCI  33
ROCKFORD       CLOUDY    37  27  67 NW10      30.25R WCI  30
PEORIA         CLOUDY    41  30  65 NW9       30.26R
$$

NOTE: "FAIR" INDICATES FEW OR NO CLOUDS BELOW 12,000 FEET WITH NO
SIGNIFICANT WEATHER AND/OR OBSTRUCTIONS TO VISIBILITY. WIND
SPEEDS ARE IN MILES-PER-HOUR.




USA.gov is the U.S. government's official web portal to all federal, state and local government web resources and services.